STARLINK-36330

Last updated on Sat Mar 14 2026 00:02:06 GMT+0000 (Coordinated Universal Time)

1 67737U 26026S 26072.58334491 .00103424 00000+0 31697-2 0 9991 2 67737 97.2845 127.1780 0001497 91.9619 337.1175 15.33370525 5948
UTC large
Height (km)
Speed (km/s)
/
Latitude / Longitude
Inclination (degrees)
Orbital Period (minutes)
Azimuth
Elevation
Range (km)
Doppler Factor

Next 0 passes for location: London (51.5072 / 0.1276)

Sorry there are no passes over London.